| time (UTC) | temp C | wind direction | speed KPH | gust KPH | rain 1hr cm | rain 24hr cm | rain mn cm | humidity % | barometer mb |
| 20260502211003 | 17 | 120 | 0.0 | 8.0 | 0.00 | 0.00 | 0.00 | 44 | 1000.7 |
| 20260502210003 | 18 | 73 | 1.6 | 8.0 | 0.00 | 0.00 | 0.00 | 42 | 1001.0 |
| 20260502202005 | 17 | 221 | 3.2 | 9.7 | 0.00 | 0.00 | 0.00 | 46 | 1001.0 |
| 20260502201004 | 16 | 10 | 3.2 | 4.8 | 0.00 | 0.00 | 0.00 | 46 | 1001.3 |
| 20260502200005 | 15 | 226 | 0.0 | 8.0 | 0.00 | 0.00 | 0.00 | 50 | 1001.4 |
| 20260502194005 | 16 | 7 | 0.0 | 4.8 | 0.00 | 0.00 | 0.00 | 48 | 1001.7 |
| 20260502193005 | 16 | 105 | 0.0 | 9.7 | 0.00 | 0.00 | 0.00 | 46 | 1001.7 |
| 20260502192004 | 16 | 30 | 3.2 | 4.8 | 0.00 | 0.00 | 0.00 | 46 | 1001.7 |
| 20260502191004 | 16 | 5 | 1.6 | 4.8 | 0.00 | 0.00 | 0.00 | 48 | 1001.7 |
| 20260502190004 | 15 | 93 | 1.6 | 4.8 | 0.00 | 0.00 | 0.00 | 49 | 1001.7 |
| 20260502185004 | 16 | 93 | 0.0 | 4.8 | 0.00 | 0.00 | 0.00 | 49 | 1002.0 |
| 20260502184004 | 15 | 97 | 3.2 | 9.7 | 0.00 | 0.00 | 0.00 | 49 | 1002.0 |
| 20260502182004 | 16 | 120 | 3.2 | 4.8 | 0.00 | 0.00 | 0.00 | 47 | 1002.0 |
| 20260502181003 | 16 | 356 | 0.0 | 4.8 | 0.00 | 0.00 | 0.00 | 50 | 1002.0 |
| 20260502163004 | 13 | 40 | 4.8 | 4.8 | 0.00 | 0.00 | 0.00 | 59 | 1003.7 |
| 20260502162004 | 14 | 9 | 3.2 | 8.0 | 0.00 | 0.00 | 0.00 | 60 | 1004.1 |
| 20260502161004 | 14 | 53 | 4.8 | 8.0 | 0.00 | 0.00 | 0.00 | 59 | 1003.7 |
| 20260502152004 | 14 | 69 | 1.6 | 9.7 | 0.00 | 0.00 | 0.00 | 60 | 1003.4 |
| 20260502151004 | 13 | 13 | 3.2 | 9.7 | 0.00 | 0.00 | 0.00 | 59 | 1003.4 |
| 20260502123004 | 12 | 37 | 0.0 | 0.0 | 0.00 | 0.00 | 0.00 | 79 | 1003.0 |
| 20260502122004 | 12 | 2 | 0.0 | 0.0 | 0.00 | 0.00 | 0.00 | 80 | 1003.0 |
| 20260502121005 | 12 | 91 | 0.0 | 0.0 | 0.00 | 0.00 | 0.00 | 79 | 1003.0 |
| 20260502114004 | 11 | 55 | 0.0 | 0.0 | 0.00 | 0.00 | 0.00 | 79 | 1002.7 |
| 20260502112004 | 11 | 10 | 0.0 | 3.2 | 0.00 | 0.00 | 0.00 | 79 | 1002.7 |
| 20260502111005 | 11 | 28 | 0.0 | 0.0 | 0.00 | 0.00 | 0.00 | 78 | 1002.9 |
| 20260502110004 | 11 | 175 | 0.0 | 3.2 | 0.00 | 0.00 | 0.00 | 77 | 1002.9 |
| 20260502105004 | 11 | 25 | 1.6 | 3.2 | 0.00 | 0.00 | 0.00 | 77 | 1002.7 |
| 20260502104004 | 11 | 63 | 1.6 | 4.8 | 0.00 | 0.00 | 0.00 | 77 | 1002.7 |
| 20260502103005 | 11 | 291 | 0.0 | 4.8 | 0.00 | 0.00 | 0.00 | 77 | 1002.7 |
| 20260502102004 | 11 | 59 | 1.6 | 4.8 | 0.00 | 0.00 | 0.00 | 77 | 1003.0 |
| 20260502101004 | 11 | 359 | 3.2 | 4.8 | 0.00 | 0.00 | 0.00 | 77 | 1002.7 |
| 20260502091004 | 11 | 324 | 3.2 | 4.8 | 0.00 | 0.00 | 0.00 | 79 | 1002.4 |
| 20260502071004 | 10 | 88 | 1.6 | 4.8 | 0.00 | 0.00 | 0.00 | 92 | 1001.4 |
| 20260502070004 | 10 | 317 | 0.0 | 3.2 | 0.00 | 0.00 | 0.00 | 92 | 1001.4 |
| 20260502065004 | 10 | 357 | 0.0 | 3.2 | 0.00 | 0.00 | 0.00 | 92 | 1001.4 |
| 20260502064004 | 10 | 6 | 1.6 | 3.2 | 0.00 | 0.00 | 0.00 | 92 | 1001.5 |
| 20260502063005 | 10 | 291 | 0.0 | 3.2 | 0.00 | 0.00 | 0.00 | 92 | 1001.7 |
| 20260502062004 | 10 | 21 | 0.0 | 3.2 | 0.00 | 0.00 | 0.00 | 92 | 1001.7 |
| 20260502061004 | 10 | 329 | 0.0 | 0.0 | 0.00 | 0.00 | 0.00 | 92 | 1001.7 |
| 20260502054005 | 10 | 338 | 1.6 | 1.6 | 0.00 | 0.00 | 0.00 | 91 | 1001.7 |
| 20260502053004 | 10 | 357 | 0.0 | 3.2 | 0.00 | 0.00 | 0.00 | 90 | 1002.0 |
| 20260502052004 | 10 | 209 | 0.0 | 3.2 | 0.00 | 0.00 | 0.00 | 89 | 1002.0 |
| 20260502051004 | 10 | 259 | 0.0 | 0.0 | 0.00 | 0.00 | 0.00 | 88 | 1002.4 |
| 20260502050004 | 10 | 257 | 0.0 | 4.8 | 0.00 | 0.00 | 0.00 | 89 | 1002.4 |
| 20260502045004 | 10 | 68 | 0.0 | 0.0 | 0.00 | 0.00 | 0.00 | 88 | 1002.4 |
| 20260502044005 | 10 | 19 | 0.0 | 0.0 | 0.00 | 0.00 | 0.00 | 87 | 1002.0 |
| 20260502043004 | 11 | 342 | 0.0 | 0.0 | 0.00 | 0.00 | 0.00 | 87 | 1002.0 |
| 20260502042004 | 11 | 297 | 0.0 | 0.0 | 0.00 | 0.00 | 0.00 | 86 | 1002.0 |
| 20260502041004 | 11 | 318 | 0.0 | 0.0 | 0.00 | 0.00 | 0.00 | 85 | 1002.0 |
| 20260502035004 | 11 | 6 | 0.0 | 0.0 | 0.00 | 0.00 | 0.00 | 83 | 1002.4 |
| 20260502034004 | 11 | 284 | 0.0 | 3.2 | 0.00 | 0.00 | 0.00 | 83 | 1002.0 |
| 20260502033004 | 12 | 240 | 0.0 | 4.8 | 0.00 | 0.00 | 0.00 | 82 | 1002.0 |
| 20260502032004 | 12 | 204 | 0.0 | 4.8 | 0.00 | 0.00 | 0.00 | 82 | 1002.0 |
| 20260502030004 | 12 | 35 | 0.0 | 0.0 | 0.00 | 0.00 | 0.00 | 80 | 1002.4 |
| 20260502025004 | 12 | 306 | 0.0 | 0.0 | 0.00 | 0.00 | 0.00 | 79 | 1002.0 |
| 20260502024004 | 12 | 176 | 0.0 | 0.0 | 0.00 | 0.00 | 0.00 | 78 | 1002.0 |
| 20260502023004 | 12 | 334 | 0.0 | 0.0 | 0.00 | 0.00 | 0.00 | 78 | 1002.0 |
| 20260502022004 | 12 | 294 | 0.0 | 3.2 | 0.00 | 0.00 | 0.00 | 77 | 1002.0 |
| 20260502021004 | 12 | 257 | 1.6 | 3.2 | 0.00 | 0.00 | 0.00 | 76 | 1001.9 |
| 20260502020004 | 13 | 338 | 0.0 | 4.8 | 0.00 | 0.00 | 0.00 | 76 | 1001.7 |
| 20260502015005 | 13 | 332 | 3.2 | 4.8 | 0.00 | 0.00 | 0.00 | 75 | 1002.0 |
| 20260502014003 | 13 | 324 | 0.0 | 4.8 | 0.00 | 0.00 | 0.00 | 74 | 1001.7 |
| 20260502013004 | 13 | 277 | 1.6 | 4.8 | 0.00 | 0.00 | 0.00 | 73 | 1001.7 |
| 20260502012004 | 13 | 13 | 0.0 | 4.8 | 0.00 | 0.00 | 0.00 | 72 | 1001.7 |
| 20260502011004 | 14 | 264 | 3.2 | 4.8 | 0.00 | 0.00 | 0.00 | 71 | 1001.4 |
| 20260502010004 | 14 | 359 | 1.6 | 8.0 | 0.00 | 0.00 | 0.00 | 70 | 1001.0 |
| 20260502005004 | 15 | 258 | 3.2 | 11.3 | 0.00 | 0.00 | 0.00 | 69 | 1001.0 |
| 20260502004005 | 15 | 292 | 3.2 | 8.0 | 0.00 | 0.00 | 0.00 | 68 | 1001.0 |
| 20260502003004 | 15 | 267 | 8.0 | 11.3 | 0.00 | 0.00 | 0.00 | 67 | 1000.7 |
| 20260502001004 | 16 | 245 | 3.2 | 12.9 | 0.00 | 0.00 | 0.00 | 64 | 1000.0 |
| 20260502000005 | 16 | 347 | 3.2 | 14.5 | 0.00 | 0.00 | 0.00 | 61 | 1000.3 |
| 20260501235004 | 16 | 233 | 12.9 | 14.5 | 0.00 | 0.00 | 0.00 | 60 | 1000.3 |
| 20260501234005 | 17 | 318 | 3.2 | 9.7 | 0.00 | 0.00 | 0.00 | 57 | 1000.3 |
| 20260501233004 | 21 | 36 | 4.8 | 4.8 | 0.00 | 0.00 | 0.00 | 42 | 1001.4 |
| 20260501232004 | 21 | 36 | 4.8 | 4.8 | 0.00 | 0.00 | 0.00 | 42 | 1001.4 |
| 20260501231004 | 21 | 36 | 4.8 | 4.8 | 0.00 | 0.00 | 0.00 | 42 | 1001.4 |
| 20260501230004 | 21 | 36 | 4.8 | 4.8 | 0.00 | 0.00 | 0.00 | 42 | 1001.4 |
| 20260501224004 | 21 | 36 | 4.8 | 4.8 | 0.00 | 0.00 | 0.00 | 42 | 1001.4 |
| 20260501222004 | 21 | 36 | 4.8 | 4.8 | 0.00 | 0.00 | 0.00 | 42 | 1001.4 |
| 20260501220005 | 21 | 36 | 4.8 | 4.8 | 0.00 | 0.00 | 0.00 | 42 | 1001.4 |
| 20260501214004 | 21 | 36 | 4.8 | 4.8 | 0.00 | 0.00 | 0.00 | 42 | 1001.4 |
| 20260501213004 | 21 | 36 | 4.8 | 4.8 | 0.00 | 0.00 | 0.00 | 42 | 1001.4 |
| 20260501212004 | 21 | 36 | 4.8 | 4.8 | 0.00 | 0.00 | 0.00 | 42 | 1001.4 |